Flag for U.S.A. Weather past 2 weeks in Peoria, Illinois, U.S.A.

Now
76 °F

Clear.


Feels Like: 78 °F
Forecast: 71 / 87 °F
Wind: 5 mph from South

Location: Greater Peoria Regional Airport

Current Time: Aug 1, 2015 at 11:20:43 PM

Latest Report: Aug 1, 2015 at 9:54 PM


Visibility: 10 mi

Pressure: 29.93 "Hg

Humidity: 67%

Dew point: 64 °F

Location of PeoriaLocation

Historic Weather in Peoria — Graph

°F

Peoria temperature yesterday

Maximum temperature yesterday: 90 °F (at 2:54 PM)
Minimum temperature yesterday: 70 °F (at 4:54 AM)
Average temperature yesterday: 80 °F

Past Weeks' High & Low Weather Summary

 TemperatureHumidityPressure
High91 °F (Jul 25, 3:54 PM)94% (Jul 27, 2:58 AM)30.12 "Hg (Jul 27, 2:58 AM)
Low63 °F (Jul 22, 3:54 AM)35% (Jul 31, 4:54 PM)29.76 "Hg (Jul 20, 7:54 PM)
Average79 °F69%29.95 "Hg
* Reported Jul 17 9:54 PM — Aug 1 9:54 PM, Peoria, Weather by CustomWeather, © 2015

Note: Actual official high and low records may vary slightly from our data, if they occured in-between our weather recording intervals... More about our weather records

Advertising

Peoria weather history for previous 24 hours

 ConditionsComfort  
Time TempWeatherWind HumidityBarometerVisibility
9:54 PM
Sat, Aug 1
76 °FClear.5 mph67%29.93 "Hg10 mi
8:54 PM79 °FSunny.3 mph60%29.93 "Hg10 mi
7:54 PM81 °FSunny.7 mph54%29.93 "Hg10 mi
6:54 PM84 °FSunny.8 mph51%29.93 "Hg10 mi
5:54 PM87 °FSunny.10 mph43%29.94 "Hg10 mi
4:54 PM88 °FSunny.12 mph38%29.95 "Hg10 mi
3:54 PM88 °FSunny.12 mph35%29.96 "Hg10 mi
2:54 PM88 °FSunny.10 mph35%29.97 "Hg10 mi
1:54 PM85 °FSunny.9 mph37%29.98 "Hg10 mi
12:54 PM86 °FSunny.9 mph42%30.00 "Hg10 mi
11:54 AM84 °FSunny.9 mph43%30.02 "Hg10 mi
10:54 AM83 °FSunny.8 mph48%30.03 "Hg10 mi
9:54 AM81 °FSunny.3 mph49%30.02 "Hg10 mi
8:54 AM77 °FSunny.No wind58%30.03 "Hg10 mi
7:54 AM70 °FSunny.3 mph71%30.03 "Hg10 mi
6:54 AM65 °FClear.3 mph85%30.03 "Hg10 mi
5:54 AM65 °FClear.No wind78%30.02 "Hg10 mi
4:54 AM66 °FClear.3 mph78%30.02 "Hg10 mi
3:54 AM67 °FClear.3 mph79%30.02 "Hg10 mi
2:54 AM67 °FClear.No wind79%30.02 "Hg10 mi
1:54 AM70 °FClear.No wind71%30.02 "Hg10 mi
12:54 AM72 °FClear.3 mph61%30.03 "Hg10 mi
11:54 PM
Fri, Jul 31
73 °FClear.3 mph62%30.02 "Hg10 mi
Weather by CustomWeather, © 2015

See weather overviewHow to use our weather pages